Fort Riley, KS

3:37 AM CST on January 22, 2017 (GMT -0600)
Marshall Army Air Field

Weather History for KFRI - August, 2013

Change the Weather History Date:

Saturday, August 24, 2013

  Actual Average (KMHK) Record (KMHK)
Temperature  
Mean Temperature 83 °F -  
Max Temperature 93 °F 88 °F 129 °F (2007)
Min Temperature 73 °F 62 °F 49 °F (2015)
Cooling Degree Days 18    
Growing Degree Days 33 (Base 50)    
Moisture  
Dew Point 69 °F    
Average Humidity 64    
Maximum Humidity 86    
Minimum Humidity 46    
Precipitation  
Precipitation 0.00 in - - ()
Sea Level Pressure  
Sea Level Pressure 30.03 in    
Wind  
Wind Speed 11 mph (South)    
Max Wind Speed 17 mph    
Max Gust Speed 23 mph    
Visibility 10 miles    
Events      
Averages and records for this station are not official NWS values.
T = Trace of Precipitation, MM = Missing Value Source: NWS Daily Summary

Daily Weather History Graph

Daily Weather History Graph

Search for Another Location

Airport or City:

Trip Planner

Search our weather history database for the weather conditions in past years. The results will help you decide how hot, cold, wet, or windy it might be!

Date:

Astronomy

Aug. 24, 2013 Rise Set
Actual Time 6:48 AM CDT 8:09 PM CDT
Civil Twilight 6:20 AM CDT 8:36 PM CDT
Nautical Twilight 5:47 AM CDT 9:10 PM CDT
Astronomical Twilight 5:12 AM CDT 9:45 PM CDT
Moon 10:06 PM CDT (8/24) 10:47 AM CDT (8/24)
Length of Visible Light 14h 15m
Length of Day
13h 20m
Waning Gibbous, 84% of the Moon is Illuminated
Aug 24
Waning Gibbous
Aug 28
Last Quarter
Sep 5
New
Sep 12
First Quarter
Sep 19
Full

Hourly Weather History & Observations

Time (CDT) Temp. Heat Index Dew Point Humidity Pressure Visibility Wind Dir Wind Speed Gust Speed Precip Events Conditions
12:58 AM 79.9 °F - 69.1 °F 69% 29.98 in 10.0 mi SSE 13.8 mph - N/A   Clear
1:58 AM 78.4 °F - 70.0 °F 75% 29.99 in 10.0 mi South 12.7 mph - N/A   Clear
2:58 AM 76.5 °F - 70.3 °F 81% 30.00 in 10.0 mi South 5.8 mph - N/A   Clear
3:58 AM 75.0 °F - 70.7 °F 86% 30.01 in 10.0 mi South 3.5 mph - N/A   Clear
4:58 AM 74.8 °F - 70.0 °F 85% 30.03 in 10.0 mi West 1.2 mph - N/A   Clear
5:58 AM 73.8 °F - 69.4 °F 86% 30.03 in 10.0 mi Variable 2.3 mph - N/A   Clear
6:58 AM 74.5 °F - 68.4 °F 81% 30.04 in 10.0 mi South 5.8 mph - N/A   Clear
7:58 AM 75.0 °F - 68.0 °F 79% 30.06 in 10.0 mi South 5.8 mph - N/A   Clear
8:58 AM 78.4 °F - 68.4 °F 71% 30.06 in 10.0 mi South 10.4 mph - N/A   Clear
9:58 AM 83.5 °F 87.2 °F 69.4 °F 62% 30.06 in 10.0 mi South 13.8 mph - N/A   Clear
10:58 AM 87.3 °F 92.4 °F 70.2 °F 57% 30.05 in 10.0 mi South 16.1 mph 23.0 mph N/A   Clear
11:58 AM 89.4 °F 93.5 °F 68.7 °F 50% 30.05 in 10.0 mi South 15.0 mph 23.0 mph N/A   Clear
12:58 PM 91.0 °F 96.6 °F 69.8 °F 50% 30.04 in 10.0 mi South 17.3 mph - N/A   Clear
1:58 PM 91.9 °F 97.9 °F 70.2 °F 49% 30.03 in 10.0 mi SSE 16.1 mph - N/A   Clear
2:58 PM 92.8 °F 98.6 °F 70.0 °F 47% 30.03 in 10.0 mi SSE 12.7 mph 21.9 mph N/A   Clear
3:58 PM 93.2 °F 98.8 °F 69.6 °F 46% 30.01 in 10.0 mi SSE 13.8 mph 20.7 mph N/A   Clear
4:58 PM 92.5 °F 97.4 °F 69.3 °F 46% 30.00 in 10.0 mi SSE 13.8 mph 23.0 mph N/A   Clear
5:58 PM 91.4 °F 97.3 °F 70.5 °F 50% 30.01 in 10.0 mi SSE 12.7 mph 23.0 mph N/A   Clear
6:58 PM 88.7 °F 94.3 °F 70.5 °F 55% 30.01 in 10.0 mi SSE 13.8 mph - N/A   Clear
7:58 PM 85.3 °F 89.8 °F 69.8 °F 60% 30.01 in 10.0 mi SSE 10.4 mph - N/A   Clear
8:58 PM 83.1 °F 85.9 °F 67.6 °F 59% 30.03 in 10.0 mi SSE 10.4 mph - N/A   Clear
9:58 PM 81.5 °F 84.1 °F 67.3 °F 62% 30.05 in 10.0 mi SSE 12.7 mph - N/A   Clear
10:58 PM 79.9 °F - 68.4 °F 68% 30.05 in 10.0 mi SSE 15.0 mph - N/A   Clear
11:58 PM 78.3 °F - 68.9 °F 73% 30.06 in 10.0 mi SSE 11.5 mph - N/A   Clear